Flag for Ireland Weather past 2 weeks in Limerick, Ireland

43 °F

Passing clouds.

Feels Like: 35 °F
Forecast: N/A
Wind: 17 mph from West

Location: Shannon Airport

Current Time: Nov 27, 2015 at 7:05:36 PM

Latest Report: Nov 27, 2015 at 6:30 PM

Visibility: N/A

Pressure: 29.92 "Hg

Humidity: 71%

Dew point: 34 °F

Location of LimerickLocation

Historic Weather in Limerick — Graph


Limerick temperature yesterday

Maximum temperature yesterday: 54 °F (at 12:00 AM)
Minimum temperature yesterday: 52 °F (at 5:00 AM)
Average temperature yesterday: 53 °F

Past Weeks' High & Low Weather Summary

High61 °F (Nov 15, 12:30 PM)100% (Nov 14, 9:00 AM)30.27 "Hg (Nov 14, 9:00 AM)
Low34 °F (Nov 23, 12:00 AM)57% (Nov 27, 6:00 PM)29.21 "Hg (Nov 17, 2:00 PM)
Average48 °F86%29.91 "Hg
* Reported Nov 12 6:00 PM — Nov 27 6:00 PM, Limerick, Weather by CustomWeather, © 2015

Note: Actual official high and low records may vary slightly from our data, if they occured in-between our weather recording intervals... More about our weather records


Limerick weather history for previous 24 hours

Time TempWeatherWind HumidityBarometerVisibility
6:00 PM
Fri, Nov 27
43 °FPassing clouds.22 mph57%29.89 "HgN/A
5:30 PM41 °FPassing clouds.16 mph76%29.89 "HgN/A
5:00 PM41 °FPassing clouds.15 mph76%29.89 "HgN/A
4:30 PM43 °FSprinkles. Passing clouds.20 mph66%29.86 "HgN/A
4:00 PM43 °FPassing clouds.16 mph76%29.86 "HgN/A
3:30 PM41 °FScattered clouds.24 mph81%29.83 "Hg5 mi
3:00 PM43 °FSprinkles. Broken clouds.26 mph76%29.80 "Hg4 mi
2:30 PM43 °FScattered clouds.20 mph76%29.80 "HgN/A
2:00 PM43 °FBroken clouds.17 mph81%29.77 "HgN/A
1:30 PM43 °FSprinkles. Broken clouds.35 mph87%29.77 "HgN/A
1:00 PM45 °FSprinkles. Broken clouds.25 mph87%29.74 "Hg4 mi
12:30 PM45 °FSprinkles. Broken clouds.30 mph87%29.71 "Hg4 mi
12:00 PM46 °FBroken clouds.25 mph87%29.68 "HgN/A
11:30 AM46 °FLight rain. Broken clouds.15 mph93%29.71 "HgN/A
11:00 AM46 °FDrizzle. Broken clouds.17 mph87%29.71 "Hg4 mi
10:30 AM46 °FLight rain. Broken clouds.21 mph93%29.71 "Hg6 mi
10:00 AM48 °FDrizzle. Broken clouds.18 mph87%29.71 "Hg4 mi
9:30 AM48 °FDrizzle. Broken clouds.23 mph94%29.68 "Hg2 mi
9:00 AM52 °FDrizzle. Partly sunny.15 mph100%29.62 "Hg1 mi
8:30 AM52 °FDrizzle. Broken clouds.18 mph94%29.65 "Hg2 mi
8:00 AM52 °FLight rain. Partly cloudy.16 mph94%29.65 "HgN/A
6:30 AM52 °FPassing clouds.14 mph88%29.74 "HgN/A
6:00 AM52 °FPassing clouds.13 mph88%29.74 "HgN/A
5:30 AM52 °FPartly cloudy.17 mph88%29.77 "HgN/A
5:00 AM52 °FMostly cloudy.13 mph88%29.80 "HgN/A
4:00 AM50 °FPartly cloudy.10 mph94%29.86 "HgN/A
3:30 AM50 °FMostly cloudy.9 mph100%29.89 "HgN/A
3:00 AM50 °FMostly cloudy.10 mph100%29.89 "HgN/A
2:30 AM50 °FDrizzle. Mostly cloudy.9 mph100%29.92 "Hg4 mi
2:00 AM50 °FPartly cloudy.9 mph100%29.95 "Hg4 mi
1:30 AM50 °FPassing clouds.8 mph100%29.95 "HgN/A
1:00 AM50 °FDrizzle. Mostly cloudy.9 mph100%29.98 "Hg3 mi
12:30 AM52 °FPartly cloudy.7 mph94%30.01 "Hg4 mi
12:00 AM52 °FPartly cloudy.13 mph94%30.01 "HgN/A
11:30 PM
Thu, Nov 26
52 °FPassing clouds.13 mph94%30.04 "HgN/A
11:00 PM52 °FOvercast.12 mph94%30.04 "HgN/A
10:00 PM52 °FPassing clouds.13 mph94%30.07 "Hg2 mi
9:30 PM52 °FPassing clouds.12 mph94%30.09 "Hg5 mi
9:00 PM52 °FPartly cloudy.13 mph94%30.09 "Hg5 mi
8:30 PM52 °FPartly cloudy.10 mph94%30.12 "Hg1 mi
8:00 PM52 °FPartly cloudy.12 mph94%30.12 "Hg4 mi
7:30 PM52 °FPassing clouds.12 mph94%30.12 "Hg4 mi
7:00 PM52 °FPassing clouds.12 mph100%30.12 "HgN/A
Weather by CustomWeather, © 2015

See weather overviewHow to use our weather pages